User: anonymous   Login
Location: Unspecified
(0.0000°N, 0.0000°E)
Time: 04:21:26
(UTC+02:00)
Language:

YAOGAN 1 - Orbit

View from above orbital plane
View from above orbital plane
View from above satellite
View from above satellite

Ground track
Ground track

The orbit data is extracted from the following two-line orbital elements,

1 29092U 06015A   16178.08625835  .00000088  00000-0  17569-4 0  9992
2 29092  98.0042 183.0560 0001435  90.6783 269.4594 14.82672725549591
Epoch (UTC): 26 June 2016 02:04:12
Eccentricity: 0.0001435
inclination: 98.0042°
perigee height: 620 km
apogee height: 622 km
right ascension of ascending node: 183.0560°
argument of perigee: 90.6783°
revolutions per day: 14.82672725
mean anomaly at epoch: 269.4594°
orbit number at epoch: 54959

The dashed part of the orbit path shows where the satellite is in the earth's shadow,  

DLR